Location: Unspecified
(0.0000°N, 0.0000°E)
Time: 07:39:17
(UTC+00:00)

deb Midas III - Pass Details

Date: 16 March 2026
Orbit: 3314 x 3545 km, 91.1° (Epoch: 18 April)

Event Time Altitude Azimuth Distance (km) Brightness Sun altitude
Rises 00:32:24 0° 159° (SSE) 7,608 ? -83.8°
Reaches altitude 10° 00:37:10 10° 152° (SSE) 6,569 ? -82.7°
Enters shadow 00:40:51 19° 145° (SE) 5,807 ? -81.8°
Exits shadow 01:08:11 16° 18° (NNE) 5,890 ? -75.0°
Drops below altitude 10° 01:10:37 10° 14° (NNE) 6,408 ? -74.4°
Sets 01:15:01 0° 9° (N) 7,411 ? -73.3°
